Location: Byszew
(52.1813°N, 19.2693°E)
Time: 20:24:11
(UTC+00:00)

Ariane Rocket - Pass Details

Date: 03 March 2021
Orbit: 759 x 771 km, 98.7° (Epoch: 15 April)

Event Time Altitude Azimuth Distance (km) Brightness Sun altitude
Exits shadow 18:42:04 21° 170° (S) 1,686 4.5 -21.4°
Maximum altitude 18:45:34 78° 255° (WSW) 794 3.1 -21.9°
Drops below altitude 10° 18:50:42 10° 342° (NNW) 2,325 6.0 -22.6°
Sets 18:53:01 0° 344° (NNW) 3,255 6.8 -23.0°
